User: anonymous   Login
Location: Unspecified
(0.0000°N, 0.0000°E)
Time: 06:33:21
(UTC+00:00)
Language:

ICEYE-X2 - Orbit

View from above orbital plane
View from above orbital plane
View from above satellite
View from above satellite

Ground track
Ground track

The orbit data is extracted from the following two-line orbital elements,

1 43761U 18099D   20223.43116211 +.00000020 +00000-0 +70719-5 0  9997
2 43761 097.7046 294.2198 0014817 016.0223 344.1463 14.95147213091996
Epoch (UTC): 10 August 2020 10:20:52
Eccentricity: 0.0014817
inclination: 97.7046°
perigee height: 571 km
apogee height: 592 km
right ascension of ascending node: 294.2198°
argument of perigee: 16.0223°
revolutions per day: 14.95147213
mean anomaly at epoch: 344.1463°
orbit number at epoch: 9199

The dashed part of the orbit path shows where the satellite is in the earth's shadow,  

DLR